This demonstration page uses our WeatherBlox Daily Observations layout. Learn more.

Left ArrowRight Arrow

Hourly Observations for February 7, 2016

Temp ( °F °C ) Dew Point ( °F °C ) Humidity (%) Winds ( mph kmh ) Pressure ( in mb ) Visibility ( mi km ) Precip ( " mm )
12:15 am 00:15 Clear 37 2.5 27 -2.6 69 69 WNW 13 20 30.09 1019 10 16 N/A
12:35 am 00:35 Clear 37 2.8 28 -2.5 68 68 WNW 14 22 30.09 1019 10 16 N/A
12:55 am 00:55 Clear 36 2.2 28 -2.5 71 71 WNW 8 13 30.12 1020 10 16 N/A
1:15 am 01:15 Clear 36 2.2 28 -2.3 72 72 WNW 8 13 30.12 1020 10 16 N/A
1:35 am 01:35 Clear 37 2.5 28 -2.2 71 71 WNW 9 15 30.09 1019 10 16 N/A
1:55 am 01:55 Clear 36 2.2 28 -2.3 72 72 WNW 10 17 30.12 1020 10 16 N/A
2:15 am 02:15 Clear 36 2.3 28 -2.5 71 71 NW 8 13 30.12 1020 10 16 N/A
2:35 am 02:35 Clear 35 1.9 28 -2.5 73 73 WNW 13 20 30.15 1021 10 16 N/A
2:55 am 02:55 Clear 35 1.8 27 -2.6 73 73 NW 12 19 30.15 1021 10 16 N/A
3:15 am 03:15 Clear 36 2.4 27 -2.7 69 69 WNW 10 17 30.15 1021 10 16 N/A
3:35 am 03:35 Clear 36 2.1 27 -3 69 69 WNW 14 22 30.15 1021 10 16 N/A
3:55 am 03:55 Clear 35 1.7 27 -3 71 71 NW 8 13 30.12 1020 10 16 N/A
4:15 am 04:15 Clear 36 2 26 -3.2 69 69 WNW 13 20 30.12 1020 10 16 N/A
4:35 am 04:35 Clear 35 1.6 26 -3.6 69 69 NW 9 15 30.12 1020 10 16 N/A
4:55 am 04:55 Clear 34 1 25 -3.9 70 70 WNW 9 15 30.12 1020 10 16 N/A
5:15 am 05:15 Clear 35 1.5 24 -4.2 66 66 WNW 9 15 30.15 1021 10 16 N/A
5:35 am 05:35 Clear 33 0.8 25 -4 71 71 W 13 20 30.15 1021 10 16 N/A
5:55 am 05:55 Clear 35 1.5 25 -4 67 67 W 13 20 30.15 1021 10 16 N/A
6:15 am 06:15 Clear 35 1.4 25 -4.1 67 67 W 13 20 30.18 1022 10 16 N/A
6:35 am 06:35 Clear 33 0.5 25 -4.1 72 72 W 13 20 30.18 1022 10 16 N/A
6:55 am 06:55 Clear 32 0.1 24 -4.2 73 73 W 13 20 30.21 1023 10 16 N/A
7:15 am 07:15 Partly Cloudy 31 -0.5 24 -4.6 74 74 WNW 9 15 30.21 1023 10 16 N/A
7:35 am 07:35 Cloudy 30 -1 23 -5 75 75 WNW 6 9 30.21 1023 10 16 N/A
7:55 am 07:55 Partly Cloudy 29 -1.7 23 -5.1 78 78 WNW 6 9 30.21 1023 10 16 N/A
8:15 am 08:15 Mostly Cloudy 31 -0.5 24 -4.6 74 74 WNW 8 13 30.24 1024 10 16 N/A
8:35 am 08:35 Cloudy 32 undefined 24 -4.2 74 74 NW 7 11 30.24 1024 10 16 N/A
8:55 am 08:55 Cloudy 33 0.7 25 -4.1 71 71 NW 10 17 30.21 1023 10 16 N/A
9:15 am 09:15 Mostly Cloudy 34 1.1 24 -4.5 67 67 WNW 12 19 30.21 1023 10 16 N/A
9:35 am 09:35 Mostly Cloudy 35 1.5 24 -4.5 65 65 WNW 15 24 30.21 1023 10 16 N/A
9:55 am 09:55 Mostly Cloudy 36 2.3 24 -4.3 62 62 WNW 13 20 30.21 1023 10 16 N/A
10:15 am 10:15 Cloudy 37 3 24 -4.2 60 60 WNW 13 20 30.21 1023 10 16 N/A
10:35 am 10:35 Mostly Cloudy 38 3.1 25 -3.9 60 60 WNW 13 20 30.24 1024 10 16 N/A
10:55 am 10:55 Mostly Cloudy 38 3.6 25 -4 58 58 WNW 13 20 30.24 1024 10 16 N/A
11:15 am 11:15 Cloudy 39 3.7 25 -4 58 58 WNW 13 20 30.24 1024 10 16 N/A
11:35 am 11:35 Mostly Cloudy 39 3.8 24 -4.2 56 56 WNW 15 24 30.24 1024 10 16 N/A
11:55 am 11:55 Partly Cloudy 39 4 24 -4.7 53 53 NW 15 24 30.24 1024 10 16 N/A
12:15 pm 12:15 Sunny 39 4.1 25 -3.9 56 56 WNW 12 19 30.18 1022 10 16 N/A
12:35 pm 12:35 Sunny 40 4.4 26 -3.5 57 57 W 14 22 30.18 1022 10 16 N/A
12:55 pm 12:55 Sunny 41 4.8 22 -5.8 47 47 WNW 21 33 30.18 1022 10 16 N/A
1:15 pm 13:15 Sunny 41 4.8 23 -4.8 50 50 W 17 28 30.18 1022 10 16 N/A
1:35 pm 13:35 Sunny 40 4.5 20 -6.4 45 45 WNW 18 30 30.18 1022 10 16 N/A
1:50 pm 13:50 Sunny 40 4.7 23 -4.9 50 50 WNW 21 33 30.18 1022 10 16 N/A
2:15 pm 14:15 Sunny 40 4.7 20 -6.4 45 45 WNW 20 31 30.18 1022 10 16 N/A
2:35 pm 14:35 Sunny 40 4.7 20 -6.9 43 43 WNW 23 37 30.15 1021 10 16 N/A
2:55 pm 14:55 Sunny 40 4.5 20 -6.9 44 44 WNW 18 30 30.15 1021 10 16 N/A
3:15 pm 15:15 Sunny 40 4.5 20 -6.5 45 45 WNW 21 33 30.15 1021 10 16 N/A
3:35 pm 15:35 Sunny 40 4.3 21 -6.2 47 47 WNW 21 33 30.15 1021 10 16 N/A
3:50 pm 15:50 Sunny 39 4.1 21 -6.1 48 48 WNW 20 31 30.15 1021 10 16 N/A
4:15 pm 16:15 Sunny 39 3.8 21 -6.1 49 49 NW 21 33 30.18 1022 10 16 N/A
4:35 pm 16:35 Sunny 39 3.7 20 -6.4 48 48 NW 25 41 30.18 1022 10 16 N/A
4:55 pm 16:55 Sunny 38 3.1 20 -6.4 50 50 NW 22 35 30.21 1023 10 16 N/A
5:15 pm 17:15 Sunny 38 3.5 16 -8.7 41 41 NW 28 44 30.18 1022 10 16 N/A
5:35 pm 17:35 Sunny 37 2.6 19 -7.5 48 48 NW 23 37 30.21 1023 10 16 N/A
5:55 pm 17:55 Sunny 36 2.2 18 -8 47 47 NW 22 35 30.21 1023 10 16 N/A
6:15 pm 18:15 Clear 37 2.5 15 -9.5 41 41 NW 24 39 30.21 1023 10 16 N/A
6:35 pm 18:35 Clear 34 1.2 17 -8.3 50 50 NW 23 37 30.21 1023 10 16 N/A
6:55 pm 18:55 Clear 35 1.7 16 -9 45 45 NW 18 30 30.21 1023 10 16 N/A
7:15 pm 19:15 Clear 34 1.1 16 -8.8 48 48 NW 17 28 30.21 1023 10 16 N/A
7:35 pm 19:35 Clear 34 1.1 16 -9.1 47 47 NW 18 30 30.21 1023 10 16 N/A
7:55 pm 19:55 Clear 34 1.1 15 -9.2 47 47 NW 20 31 30.21 1023 10 16 N/A
8:15 pm 20:15 Clear 31 -0.5 18 -8 57 57 NW 12 19 30.24 1024 10 16 N/A
8:35 pm 20:35 Clear 30 -0.9 17 -8.3 58 58 NW 14 22 30.24 1024 10 16 N/A
8:55 pm 20:55 Clear 30 -1 17 -8.4 58 58 NW 16 26 30.24 1024 10 16 N/A
9:15 pm 21:15 Clear 32 -0.2 16 -8.9 52 52 NW 17 28 30.27 1025 10 16 N/A
9:35 pm 21:35 Clear 31 -0.5 16 -9 53 53 NW 15 24 30.27 1025 10 16 N/A
9:55 pm 21:55 Clear 31 -0.5 16 -8.8 54 54 NW 13 20 30.27 1025 10 16 N/A
10:15 pm 22:15 Clear 30 -1 16 -9 55 55 NW 13 20 30.27 1025 10 16 N/A
10:35 pm 22:35 Clear 29 -1.4 16 -8.9 57 57 NW 17 28 30.27 1025 10 16 N/A
10:55 pm 22:55 Clear 30 -1.2 16 -9 56 56 NW 17 28 30.27 1025 10 16 N/A
11:15 pm 23:15 Clear 30 -1.3 16 -9 56 56 NW 15 24 30.27 1025 10 16 N/A
11:35 pm 23:35 Clear 28 -2 16 -8.8 60 60 WNW 16 26 30.33 1027 10 16 N/A
11:55 pm 23:55 Clear 29 -1.8 16 -9.1 58 58 WNW 17 28 30.27 1025 10 16 N/A

Powered by AerisWeather